Weather in Konoplino

Russia / Ryazan Oblast     53°36′19″N   40°36′49″E
temp.,
°C
wind,
m/s
gust,
m/s
humid.,
%
clouds,
%
prec.,
mm/h
press.,
hPa
HPBL,
m
3 august, tue
tue300:00+24sw51350100 0.0 1007336
03:00+19sse2277100 0.0 100827
06:00+20sw41084100 1.1 1009359
09:00+22wsw4679100 1.6 1009557
12:00+23sw3471100 0.0 1010706
15:00+26sw455895 1.1 10101326
18:00+25wnw355240 0.8 10091374
21:00+21nnw476256 1.1 1012222
4 august, wed
wed400:00+18nnw3471100 0.0 101391
03:00+17nnw3373100 0.0 101455
06:00+16nnw367215 0.0 1014157
09:00+22nnw44485 0.0 1015869
12:00+25nw443699 0.0 10152645
15:00+23nw343936 0.0 10151035
18:00+22nw453915 0.0 1016374
21:00+20nnw1145100 0.0 101611
5 august, thu
thu500:00+17nw2255100 0.0 101724
03:00+15nw22645 0.0 101811
06:00+16n22665 0.0 101849
09:00+22e00467 0.0 1018622
12:00+25ssw2235100 0.0 10172085
15:00+27ssw223085 0.0 10162470
18:00+26s1331100 0.0 10162263
21:00+20se4848100 0.0 1016139
6 august, fri
fri600:00+20sse394952 0.0 1015220
03:00+20sse51347100 0.0 1015412
06:00+20sse51348100 0.0 1014408
09:00+20sse3650100 0.0 1015266
12:00+28s573188 0.0 10131769
15:00+31s6826100 0.0 10122745
18:00+28se6103558 0.0 1011576
21:00+24se615455 0.0 1011377
7 august, sat
sat700:00+23sse61644100 0.0 1011416
03:00+21sse51544100 0.0 1011363
06:00+21sse41344100 0.0 1012358
09:00+26s5833100 0.0 1013529
12:00+30sse672669 0.0 10121090
15:00+32se66235 0.0 10122246
18:00+30se572899 0.0 10121211
21:00+25ese51139100 0.0 1012244